"2016-05-10 00:00:00",1619931,5.104,318.1,3.618,0.307,17.35,106.2999,15.4,16.39,33.41,0,110.8,13.11,16.21,280.1
"2016-05-10 00:00:30",1619932,3.989,319.3,4.763,0.304,17.43,106.2987,15.4,16.4,34.21,0,110.8,13.12,16.20,281.3
"2016-05-10 00:01:00",1619933,2.851,317,8.84,0.447,17.31,106.2959,15.39,16.39,34.19,0,110.8,13.12,16.20,279.0
"2016-05-10 00:01:30",1619934,2.178,315.5,5.354,0.233,17.21,106.2954,15.39,16.38,33.4,0,110.8,13.12,16.20,277.5
"2016-05-10 00:02:00",1619935,2.207,314.7,4.4,0.135,17.11,106.2948,15.39,16.38,33.02,0,110.8,13.12,16.19,276.7
"2016-05-10 00:02:30",1619936,2.349,304,3.625,0.183,17.08,106.293,15.38,16.39,33.19,0,110.8,13.12,16.19,266.0
"2016-05-10 00:03:00",1619937,3.107,305.8,5.468,0.17,17.13,106.3026,15.41,16.41,33.38,0,110.8,13.12,16.21,267.8
"2016-05-10 00:03:30",1619938,2.271,298.8,8.89,0.44,17.16,106.3129,15.43,16.41,33.62,0,110.8,13.12,16.24,260.8
"2016-05-10 00:04:00",1619939,1.918,315,6.092,0.584,17.1,106.2991,15.4,16.42,33.58,0,110.8,13.12,16.20,277.0
"2016-05-10 00:04:30",1619940,2.912,303.6,3.128,0.511,17.08,106.2892,15.37,16.39,33.58,0,110.8,13.12,16.18,265.6
"2016-05-10 00:05:00",1619941,4.841,291.6,4.437,0.636,17.19,106.2876,15.37,16.38,32.71,0,110.8,13.12,16.18,253.6
"2016-05-10 00:05:30",1619942,4.403,309.5,5.245,0.57,17.31,106.2882,15.37,16.38,31.95,0,110.8,13.12,16.18,271.5
"2016-05-10 00:06:00",1619943,3.162,321.4,3.737,0.231,17.4,106.2922,15.38,16.4,32.17,0,110.8,13.12,16.19,283.4
"2016-05-10 00:06:30",1619944,3.553,328.6,4.281,0.395,17.47,106.3016,15.41,16.42,32.38,0,110.8,13.12,16.21,290.6
"2016-05-10 00:07:00",1619945,3.782,326,2.414,0.443,17.54,106.3051,15.41,16.42,32.47,0,110.8,13.12,16.22,288.0
"2016-05-10 00:07:30",1619946,3.737,335.5,6.393,0.266,17.62,106.3091,15.42,16.44,32.59,0,110.9,13.12,16.23,297.5
"2016-05-10 00:08:00",1619947,3.024,335.2,4.136,0.428,17.68,106.3117,15.43,16.44,32.38,0,110.9,13.11,16.24,297.2
"2016-05-10 00:08:30",1619948,3.377,336.9,7.898,0.507,17.74,106.3119,15.43,16.46,32.34,0,110.9,13.11,16.24,298.9
"2016-05-10 00:09:00",1619949,3.154,324.7,15.02,0.568,17.76,106.312,15.43,16.45,32.37,0,110.9,13.12,16.24,286.7
"2016-05-10 00:09:30",1619950,2.933,331.1,11.06,0.549,17.81,106.3101,15.43,16.45,32.32,0,110.9,13.12,16.23,293.1
"2016-05-10 00:10:00",1619951,2.487,311.6,10.91,0.526,17.72,106.3061,15.42,16.44,32.26,0,110.9,13.12,16.22,273.6
"2016-05-10 00:10:30",1619952,1.543,303.8,7.212,0.401,17.77,106.2934,15.38,16.44,32.76,0,110.8,13.12,16.19,265.8
"2016-05-10 00:11:00",1619953,0.761,310.4,11.72,0.172,17.78,106.2794,15.35,16.42,32.91,0,110.8,13.12,16.15,272.4
"2016-05-10 00:11:30",1619954,1.123,304.3,12.31,0.128,17.81,106.2578,15.29,16.39,32.92,0,110.8,13.11,16.10,266.3
"2016-05-10 00:12:00",1619955,1.659,274.6,5.823,0.431,17.97,106.2418,15.25,16.35,33.07,0,110.8,13.11,16.06,236.6
"2016-05-10 00:12:30",1619956,2.801,289.2,5.596,0.699,17.86,106.2264,15.21,16.31,33.22,0,110.8,13.11,16.02,251.2
"2016-05-10 00:13:00",1619957,2.824,293.3,5.232,0.193,17.9,106.2264,15.21,16.3,33.11,0,110.8,13.11,16.02,255.3
"2016-05-10 00:13:30",1619958,2.3,305.2,4.485,0.226,17.89,106.228,15.22,16.28,33.11,0,110.8,13.11,16.02,267.2
"2016-05-10 00:14:00",1619959,2.052,300,6.455,0.315,17.9,106.2142,15.18,16.27,33.16,0,110.8,13.11,15.99,262.0
"2016-05-10 00:14:30",1619960,2.553,298.5,4.958,0.22,17.93,106.2048,15.16,16.23,33.39,0,110.8,13.11,15.96,260.5
"2016-05-10 00:15:00",1619961,2.886,293.6,5.396,0.152,17.9,106.1977,15.14,16.2,33.72,0,110.8,13.11,15.94,255.6
"2016-05-10 00:15:30",1619962,3.881,284.1,6.63,0.352,17.97,106.1752,15.08,16.17,33.85,0,110.8,13.11,15.89,246.1
"2016-05-10 00:16:00",1619963,3.37,295.1,5.537,0.298,17.91,106.1763,15.08,16.12,34.34,0,110.8,13.11,15.89,257.1
"2016-05-10 00:16:30",1619964,3.466,300.1,6.354,0.251,17.9,106.164,15.05,16.09,34.28,0,110.8,13.11,15.86,262.1
"2016-05-10 00:17:00",1619965,3.077,297.1,5.913,0.238,17.87,106.1474,15.01,16.07,34.15,0,110.8,13.12,15.81,259.1
"2016-05-10 00:17:30",1619966,3.532,302.2,7.515,0.545,17.86,106.1483,15.01,16.04,34.1,0,110.8,13.12,15.82,264.2
"2016-05-10 00:18:00",1619967,4.233,294.9,5.275,0.364,17.91,106.1458,15.01,16.04,33.7,0,110.8,13.12,15.81,256.9
"2016-05-10 00:18:30",1619968,4.646,291,1.91,0.167,17.92,106.1247,14.95,16,33.4,0,110.8,13.12,15.76,253.0
"2016-05-10 00:19:00",1619969,4.291,289.6,1.744,0.184,17.86,106.1149,14.93,16,33.22,0,110.8,13.12,15.73,251.6
"2016-05-10 00:19:30",1619970,4.617,291.1,1.176,0.215,17.85,106.1149,14.93,15.98,32.62,0,110.8,13.12,15.73,253.1
"2016-05-10 00:20:00",1619971,5.155,294,1.229,0.243,17.75,106.1149,14.93,15.96,32.14,0,110.8,13.12,15.73,256.0
"2016-05-10 00:20:30",1619972,5.383,294.8,1.944,0.169,17.67,106.1064,14.91,15.95,32.43,0,110.8,13.12,15.71,256.8
"2016-05-10 00:21:00",1619973,4.437,297,2.384,0.367,17.81,106.0825,14.84,15.93,32.72,0,110.8,13.12,15.65,259.0
"2016-05-10 00:21:30",1619974,3.968,296.9,3.764,0.161,17.77,106.0811,14.84,15.93,33.18,0,110.8,13.13,15.64,258.9
"2016-05-10 00:22:00",1619975,4.021,298,3.997,0.254,17.8,106.0783,14.83,15.91,33.65,0,110.8,13.13,15.64,260.0
"2016-05-10 00:22:30",1619976,3.791,310.8,4.88,0.227,17.65,106.0653,14.8,15.88,33.96,0,110.8,13.13,15.60,272.8
"2016-05-10 00:23:00",1619977,3.422,304.6,2.159,0.138,17.58,106.0566,14.78,15.87,34.09,0,110.8,13.13,15.58,266.6
"2016-05-10 00:23:30",1619978,3.163,310.8,3.159,0.221,17.5,106.0479,14.76,15.86,34.43,0,110.8,13.13,15.56,272.8
"2016-05-10 00:24:00",1619979,3.202,315,4.253,0.445,17.42,106.0473,14.75,15.84,34.42,0,110.8,13.13,15.56,277.0
"2016-05-10 00:24:30",1619980,2.84,310.5,2.168,0.247,17.38,106.0473,14.75,15.84,34.43,0,110.7,13.13,15.56,272.5
"2016-05-10 00:25:00",1619981,2.578,311.2,3.646,0.161,17.53,106.0473,14.75,15.82,34.57,0,110.8,13.13,15.56,273.2
"2016-05-10 00:25:30",1619982,2.535,309.3,5.336,0.167,17.63,106.0428,14.74,15.81,34.58,0,110.7,13.13,15.55,271.3
"2016-05-10 00:26:00",1619983,2.854,312.1,3.504,0.147,17.6,106.0397,14.73,15.8,34.34,0,110.7,13.13,15.54,274.1
"2016-05-10 00:26:30",1619984,3.748,310.3,3.621,0.236,17.69,106.0386,14.73,15.81,34.31,0,110.7,13.13,15.54,272.3
"2016-05-10 00:27:00",1619985,4.122,311.6,3.89,0.179,17.78,106.0363,14.73,15.79,34.18,0,110.7,13.13,15.53,273.6
"2016-05-10 00:27:30",1619986,4.149,308.6,3.361,0.279,17.85,106.0304,14.71,15.8,33.21,0,110.7,13.13,15.51,270.6
"2016-05-10 00:28:00",1619987,3.588,306.9,5.023,0.183,17.78,106.0208,14.69,15.78,32.89,0,110.7,13.13,15.49,268.9
"2016-05-10 00:28:30",1619988,3.592,300.9,1.19,0.17,17.88,106.0146,14.67,15.78,32.68,0,110.7,13.13,15.47,262.9
"2016-05-10 00:29:00",1619989,3.309,296.7,4.607,0.589,17.83,106.0135,14.67,15.78,32.56,0,110.7,13.13,15.47,258.7
"2016-05-10 00:29:30",1619990,2.643,304.2,4.867,0.228,17.88,106.0138,14.67,15.76,32.23,0,110.7,13.13,15.47,266.2
"2016-05-10 00:30:00",1619991,2.874,306.7,4.24,0.225,17.9,106.0144,14.67,15.76,32.02,0,110.7,13.12,15.47,268.7
"2016-05-10 00:30:30",1619992,3.667,307.8,5.913,0.473,17.91,106.0165,14.68,15.77,32.07,0,110.7,13.12,15.48,269.8
"2016-05-10 00:31:00",1619993,4.027,301.5,2.296,0.176,17.96,106.0195,14.68,15.75,32.23,0,110.7,13.12,15.49,263.5
"2016-05-10 00:31:30",1619994,4.391,302.5,3.616,0.201,18.01,106.0207,14.69,15.76,32.05,0,110.7,13.12,15.49,264.5
"2016-05-10 00:32:00",1619995,3.848,306.2,6.861,0.217,18.1,106.0174,14.68,15.74,31.81,0,110.7,13.12,15.48,268.2
"2016-05-10 00:32:30",1619996,4.407,307.8,3.663,0.264,18,106.0122,14.66,15.73,31.93,0,110.7,13.13,15.47,269.8
"2016-05-10 00:33:00",1619997,4.78,301.6,2.163,0.224,18.01,106.0091,14.66,15.72,31.9,0,110.7,13.12,15.46,263.6
"2016-05-10 00:33:30",1619998,4.332,305.2,1.373,0.182,17.95,106.0081,14.65,15.72,31.75,0,110.7,13.13,15.46,267.2
"2016-05-10 00:34:00",1619999,4.109,301.7,2.695,0.153,18.03,106.0042,14.64,15.69,31.77,0,110.7,13.13,15.45,263.7
"2016-05-10 00:34:30",1620000,3.988,304.9,2.318,0.206,18.01,106.0078,14.65,15.71,31.82,0,110.7,13.13,15.46,266.9
"2016-05-10 00:35:00",1620001,3.827,307.6,2.269,0.291,18.1,106.012,14.66,15.69,31.76,0,110.7,13.13,15.47,269.6
"2016-05-10 00:35:30",1620002,4.507,299.6,3.325,0.182,18.03,106.0141,14.67,15.69,31.88,0,110.7,13.13,15.47,261.6
"2016-05-10 00:36:00",1620003,4.242,294.7,2.622,0.207,17.93,106.0138,14.67,15.68,32.14,0,110.7,13.14,15.47,256.7
"2016-05-10 00:36:30",1620004,3.805,291.2,2.888,0.203,17.98,106.0074,14.65,15.66,32.2,0,110.7,13.14,15.45,253.2
"2016-05-10 00:37:00",1620005,3.951,298.4,3.12,0.213,18.03,105.9992,14.63,15.67,32.12,0,110.7,13.14,15.43,260.4
"2016-05-10 00:37:30",1620006,4.228,293.2,2.995,0.226,18.07,105.9882,14.6,15.65,32.14,0,110.7,13.14,15.41,255.2
"2016-05-10 00:38:00",1620007,4.488,294.2,3.68,0.276,18.08,105.9817,14.59,15.64,32.3,0,110.7,13.14,15.39,256.2
"2016-05-10 00:38:30",1620008,4.314,293.3,4.621,0.227,18.08,105.9817,14.59,15.64,32.45,0,110.7,13.14,15.39,255.3
"2016-05-10 00:39:00",1620009,3.895,297.8,4.155,0.275,18.04,105.9817,14.59,15.63,32.53,0,110.7,13.14,15.39,259.8
"2016-05-10 00:39:30",1620010,4.4,298.8,2.219,0.347,18.07,105.9817,14.59,15.63,32.59,0,110.7,13.14,15.39,260.8
"2016-05-10 00:40:00",1620011,4.45,300.1,2.242,0.217,18.06,105.9798,14.58,15.6,32.56,0,110.7,13.14,15.38,262.1
"2016-05-10 00:40:30",1620012,4.565,294.9,2.295,0.231,18.01,105.9747,14.57,15.6,32.69,0,110.7,13.15,15.37,256.9
"2016-05-10 00:41:00",1620013,4.936,291,2.932,0.214,18.07,105.9719,14.56,15.6,32.45,0,110.7,13.14,15.36,253.0
"2016-05-10 00:41:30",1620014,5.423,298,3.304,0.245,18.06,105.9651,14.54,15.6,32.31,0,110.7,13.14,15.35,260.0
"2016-05-10 00:42:00",1620015,5.87,298.2,3.048,0.13,17.98,105.9567,14.52,15.59,32.11,0,110.7,13.15,15.32,260.2
"2016-05-10 00:42:30",1620016,5.408,299.5,1.938,0.168,17.86,105.9522,14.51,15.56,32.05,0,110.7,13.15,15.31,261.5
"2016-05-10 00:43:00",1620017,5.578,300.5,4.998,0.325,17.76,105.9505,14.51,15.59,32.28,0,110.6,13.15,15.31,262.5
"2016-05-10 00:43:30",1620018,5.688,306,3.929,0.238,17.69,105.9553,14.52,15.58,32.37,0,110.7,13.15,15.32,268.0
"2016-05-10 00:44:00",1620019,6.173,304,4.369,0.337,17.63,105.9654,14.54,15.59,32.51,0,110.6,13.15,15.35,266.0
"2016-05-10 00:44:30",1620020,6.076,299.1,1.966,0.549,17.53,105.973,14.56,15.59,32.83,0,110.6,13.15,15.37,261.1
"2016-05-10 00:45:00",1620021,6.292,304.9,3.175,0.355,17.58,105.9789,14.58,15.59,32.78,0,110.6,13.15,15.38,266.9
"2016-05-10 00:45:30",1620022,5.419,312.5,2.415,0.331,17.57,105.9817,14.59,15.61,32.78,0,110.6,13.15,15.39,274.5
"2016-05-10 00:46:00",1620023,5.32,301.4,5.167,0.49,17.48,105.9817,14.59,15.61,32.75,0,110.6,13.14,15.39,263.4
"2016-05-10 00:46:30",1620024,6.075,300.9,2.796,0.515,17.41,105.9846,14.59,15.63,32.82,0,110.6,13.14,15.40,262.9
"2016-05-10 00:47:00",1620025,6.562,298.5,2.678,0.279,17.43,106.002,14.64,15.63,32.81,0,110.6,13.14,15.44,260.5
"2016-05-10 00:47:30",1620026,5.573,303.7,3.084,0.348,17.45,106.0142,14.67,15.66,33.02,0,110.6,13.14,15.47,265.7
"2016-05-10 00:48:00",1620027,5.307,309,5.935,0.506,17.49,106.0176,14.68,15.67,33.25,0,110.6,13.14,15.48,271.0
"2016-05-10 00:48:30",1620028,7.706,308.7,2.273,0.366,17.5,106.0264,14.7,15.69,33.46,0,110.6,13.14,15.50,270.7
"2016-05-10 00:49:00",1620029,6.797,313.9,2.62,0.409,17.59,106.03,14.71,15.71,33.03,0,110.6,13.14,15.51,275.9
"2016-05-10 00:49:30",1620030,6.871,313.4,1.528,0.523,17.71,106.0467,14.75,15.72,32.64,0,110.6,13.14,15.56,275.4
"2016-05-10 00:50:00",1620031,6,310.1,2.39,0.232,17.76,106.0514,14.76,15.73,31.95,0,110.6,13.14,15.57,272.1
"2016-05-10 00:50:30",1620032,5.778,312.1,4.442,0.513,17.74,106.0502,14.76,15.74,32.09,0,110.6,13.14,15.56,274.1
"2016-05-10 00:51:00",1620033,5.658,315.5,1.783,0.384,17.54,106.0641,14.8,15.78,32.6,0,110.6,13.14,15.60,277.5
"2016-05-10 00:51:30",1620034,4.644,311.7,3.009,0.302,17.66,106.0794,14.84,15.79,32.85,0,110.6,13.14,15.64,273.7
"2016-05-10 00:52:00",1620035,5.244,318.3,2.535,0.403,17.71,106.0835,14.85,15.81,32.45,0,110.6,13.14,15.65,280.3
"2016-05-10 00:52:30",1620036,5.571,317.2,3.003,0.463,17.67,106.0864,14.85,15.83,32.35,0,110.6,13.14,15.66,279.2
"2016-05-10 00:53:00",1620037,6.629,316.7,2.073,0.199,17.62,106.0941,14.87,15.85,32.4,0,110.6,13.14,15.68,278.7
"2016-05-10 00:53:30",1620038,6.518,312.7,2.353,0.372,17.63,106.108,14.91,15.87,32.19,0,110.6,13.15,15.71,274.7
"2016-05-10 00:54:00",1620039,5.766,310.5,2.321,0.356,17.67,106.1161,14.93,15.88,32.06,0,110.6,13.14,15.73,272.5
"2016-05-10 00:54:30",1620040,5.725,314.7,1.532,0.368,17.65,106.1178,14.93,15.91,32.11,0,110.6,13.14,15.74,276.7
"2016-05-10 00:55:00",1620041,5.626,316.8,2.748,0.292,17.67,106.1169,14.93,15.92,32.06,0,110.6,13.14,15.74,278.8
"2016-05-10 00:55:30",1620042,5.554,315.9,2.727,0.228,17.68,106.1265,14.96,15.93,32.15,0,110.7,13.14,15.76,277.9
"2016-05-10 00:56:00",1620043,5.534,318.8,4.633,0.432,17.77,106.1459,15.01,15.96,32.51,0,110.7,13.14,15.81,280.8
"2016-05-10 00:56:30",1620044,5.054,323.2,2.545,0.198,17.94,106.1507,15.02,15.97,32.45,0,110.7,13.14,15.82,285.2
"2016-05-10 00:57:00",1620045,5.532,318.8,2.428,0.353,17.95,106.1507,15.02,15.99,32.51,0,110.7,13.14,15.82,280.8
"2016-05-10 00:57:30",1620046,5.351,315.3,4.711,0.819,17.92,106.151,15.02,15.98,32.58,0,110.7,13.14,15.82,277.3
"2016-05-10 00:58:00",1620047,4.42,321.9,3.49,0.299,17.96,106.151,15.02,16.02,32.6,0,110.7,13.14,15.82,283.9
"2016-05-10 00:58:30",1620048,3.694,326.7,4.735,0.316,18.02,106.1534,15.03,16.02,32.43,0,110.7,13.14,15.83,288.7
"2016-05-10 00:59:00",1620049,4.506,324.2,5.323,0.453,18.03,106.154,15.03,16.02,32.16,0,110.7,13.14,15.83,286.2
"2016-05-10 00:59:30",1620050,4.33,327.3,5.102,0.579,17.9,106.1573,15.04,16.03,32.21,0,110.7,13.14,15.84,289.3
"2016-05-10 01:00:00",1620051,5.922,325.8,1.339,0.329,17.97,106.1567,15.03,16.02,32.12,0,110.7,13.14,15.84,287.8
"2016-05-10 01:00:30",1620052,7.011,324.7,2.097,0.58,17.99,106.1555,15.03,16.02,32.22,0,110.7,13.14,15.84,286.7
"2016-05-10 01:01:00",1620053,7.596,324.5,5.201,0.576,18.1,106.1516,15.02,16.02,31.23,0,110.7,13.14,15.83,286.5
"2016-05-10 01:01:30",1620054,6.429,326.5,4.253,0.422,18.08,106.1449,15,16.02,31.03,0,110.7,13.14,15.81,288.5
"2016-05-10 01:02:00",1620055,6.134,327.3,5.491,0.537,18.04,106.1255,14.95,16.01,30.86,0,110.7,13.14,15.76,289.3
"2016-05-10 01:02:30",1620056,5.095,319.2,3.322,0.348,18.03,106.1241,14.95,16.01,31.09,0,110.7,13.14,15.75,281.2
"2016-05-10 01:03:00",1620057,5.264,333.8,8.3,0.676,18.12,106.125,14.95,16,30.93,0,110.7,13.14,15.76,295.8
"2016-05-10 01:03:30",1620058,5.174,335.8,7.667,0.395,18.13,106.125,14.95,15.99,31.04,0,110.7,13.14,15.76,297.8
"2016-05-10 01:04:00",1620059,5.008,323.7,4.349,0.271,18.01,106.1214,14.94,15.98,31.25,0,110.7,13.14,15.75,285.7
"2016-05-10 01:04:30",1620060,5.17,319.3,5.102,0.46,17.92,106.116,14.93,15.97,31.57,0,110.7,13.14,15.73,281.3
"2016-05-10 01:05:00",1620061,4.797,305.4,4.331,0.264,17.74,106.1077,14.91,15.96,31.89,0,110.7,13.14,15.71,267.4
"2016-05-10 01:05:30",1620062,4.556,303.9,4.977,0.594,17.68,106.1094,14.91,15.96,32.31,0,110.7,13.14,15.72,265.9
"2016-05-10 01:06:00",1620063,5.836,310.6,1.632,0.198,17.66,106.1098,14.91,15.96,32.27,0,110.7,13.14,15.72,272.6
"2016-05-10 01:06:30",1620064,5.646,309.2,1.531,0.261,17.6,106.1034,14.9,15.95,32.43,0,110.7,13.14,15.70,271.2
"2016-05-10 01:07:00",1620065,4.404,313.7,4.818,0.277,17.69,106.0991,14.89,15.95,32.3,0,110.7,13.14,15.69,275.7
"2016-05-10 01:07:30",1620066,4.974,320.8,4.756,0.237,17.66,106.1006,14.89,15.94,32.12,0,110.6,13.14,15.69,282.8
"2016-05-10 01:08:00",1620067,5.414,317.8,4.215,0.378,17.65,106.0983,14.88,15.94,32.38,0,110.7,13.14,15.69,279.8
"2016-05-10 01:08:30",1620068,5.327,319,5.748,0.395,17.69,106.0969,14.88,15.94,32.32,0,110.6,13.14,15.69,281.0
"2016-05-10 01:09:00",1620069,6.106,319.9,3.124,0.329,17.72,106.0975,14.88,15.94,32.02,0,110.6,13.14,15.69,281.9
"2016-05-10 01:09:30",1620070,6.009,322.8,5.423,0.47,17.76,106.1007,14.89,15.93,32.02,0,110.6,13.15,15.69,284.8
"2016-05-10 01:10:00",1620071,6.476,318.9,2.355,0.452,17.8,106.0997,14.89,15.93,31.72,0,110.6,13.15,15.69,280.9
"2016-05-10 01:10:30",1620072,6.348,325.7,2.946,0.552,17.79,106.1018,14.89,15.92,32.15,0,110.6,13.15,15.70,287.7
"2016-05-10 01:11:00",1620073,5.324,333.2,5.342,0.546,17.83,106.1099,14.91,15.92,32.14,0,110.6,13.15,15.72,295.2
"2016-05-10 01:11:30",1620074,4.143,335.2,8.3,0.481,17.76,106.1157,14.93,15.94,32.2,0,110.6,13.15,15.73,297.2
"2016-05-10 01:12:00",1620075,3.198,348.1,4.312,0.218,17.81,106.1125,14.92,15.93,32.41,0,110.6,13.15,15.73,310.1
"2016-05-10 01:12:30",1620076,3.421,339.1,5.591,0.224,17.69,106.115,14.93,15.94,32.3,0,110.6,13.15,15.73,301.1
"2016-05-10 01:13:00",1620077,4.651,326.7,4.032,0.552,17.69,106.1223,14.95,15.94,32.42,0,110.6,13.15,15.75,288.7
"2016-05-10 01:13:30",1620078,5.695,329.5,5.778,0.24,17.74,106.1242,14.95,15.95,32.47,0,110.6,13.15,15.76,291.5
"2016-05-10 01:14:00",1620079,6.631,322.6,6.685,0.647,17.76,106.129,14.96,15.95,32.15,0,110.7,13.15,15.77,284.6
"2016-05-10 01:14:30",1620080,6.522,321.9,4.961,0.65,17.78,106.1313,14.97,15.96,31.92,0,110.7,13.15,15.77,283.9
"2016-05-10 01:15:00",1620081,4.882,328.7,8.15,0.377,17.79,106.1307,14.97,15.98,31.98,0,110.7,13.15,15.77,290.7
"2016-05-10 01:15:30",1620082,3.768,326.1,7.955,0.693,17.77,106.1298,14.97,15.97,31.93,0,110.7,13.15,15.77,288.1
"2016-05-10 01:16:00",1620083,5.07,323.7,5.608,0.227,17.74,106.1286,14.96,15.98,32.13,0,110.7,13.15,15.77,285.7
"2016-05-10 01:16:30",1620084,4.329,323.2,5.969,0.498,17.76,106.128,14.96,15.98,32.14,0,110.7,13.15,15.76,285.2
"2016-05-10 01:17:00",1620085,5.766,336.9,6.661,0.812,17.79,106.128,14.96,15.98,32.09,0,110.7,13.15,15.76,298.9
"2016-05-10 01:17:30",1620086,4.743,322.7,3.626,0.222,17.73,106.1286,14.96,15.98,32.2,0,110.7,13.15,15.77,284.7
"2016-05-10 01:18:00",1620087,4.844,339.7,8.67,0.672,17.85,106.1286,14.96,15.99,31.6,0,110.7,13.15,15.77,301.7
"2016-05-10 01:18:30",1620088,4.631,340.9,7.329,0.613,17.82,106.1286,14.96,16,31.76,0,110.7,13.15,15.77,302.9
"2016-05-10 01:19:00",1620089,4.926,322.3,3.955,0.339,17.73,106.1294,14.96,15.99,31.91,0,110.7,13.15,15.77,284.3
"2016-05-10 01:19:30",1620090,4.934,317.7,2.893,0.244,17.7,106.1317,14.97,16,32.4,0,110.6,13.15,15.77,279.7
"2016-05-10 01:20:00",1620091,4.842,318.2,5.412,0.23,17.64,106.1342,14.98,16,33.04,0,110.7,13.14,15.78,280.2
"2016-05-10 01:20:30",1620092,4.268,328.5,6.303,0.512,17.7,106.1325,14.97,16.01,33.21,0,110.6,13.14,15.78,290.5
"2016-05-10 01:21:00",1620093,4.51,337.3,1.525,0.248,17.78,106.1413,14.99,16.01,32.93,0,110.6,13.14,15.80,299.3
"2016-05-10 01:21:30",1620094,5.055,338.3,2.836,0.173,17.85,106.1472,15.01,16.01,32.76,0,110.6,13.14,15.81,300.3
"2016-05-10 01:22:00",1620095,5.646,317.3,6.999,0.626,17.82,106.15,15.02,16.01,31.76,0,110.7,13.14,15.82,279.3
"2016-05-10 01:22:30",1620096,5.045,330.4,11.49,0.426,17.86,106.1492,15.01,16.03,31.73,0,110.7,13.14,15.82,292.4
"2016-05-10 01:23:00",1620097,5.798,334.4,5.624,0.336,17.86,106.1461,15.01,16,32.08,0,110.7,13.14,15.81,296.4
"2016-05-10 01:23:30",1620098,6.446,327.4,2.586,0.176,17.92,106.1521,15.02,16.02,31.16,0,110.7,13.14,15.83,289.4
"2016-05-10 01:24:00",1620099,6.938,326.9,2.507,0.373,17.9,106.1541,15.03,16.01,30.49,0,110.7,13.14,15.83,288.9
"2016-05-10 01:24:30",1620100,8.38,325.2,2.86,0.388,17.93,106.1515,15.02,16.02,30.88,0,110.7,13.14,15.83,287.2
"2016-05-10 01:25:00",1620101,7.52,335.5,4.796,0.444,17.91,106.1506,15.02,16.02,31.64,0,110.7,13.14,15.82,297.5
"2016-05-10 01:25:30",1620102,5.926,344.9,6.509,0.835,17.95,106.1512,15.02,16.03,31.97,0,110.7,13.14,15.82,306.9
"2016-05-10 01:26:00",1620103,5.564,343.9,3.519,0.457,17.91,106.1493,15.02,16.02,32.17,0,110.7,13.14,15.82,305.9
"2016-05-10 01:26:30",1620104,6.876,335,6.706,0.378,17.97,106.1459,15.01,16.03,31.66,0,110.7,13.14,15.81,297.0
"2016-05-10 01:27:00",1620105,7.134,326.4,4.113,0.715,17.93,106.1436,15,16.04,31.35,0,110.7,13.15,15.81,288.4
"2016-05-10 01:27:30",1620106,6.522,329.9,6.187,0.77,17.97,106.1355,14.98,16.03,31.56,0,110.7,13.15,15.78,291.9
"2016-05-10 01:28:00",1620107,5.638,324.6,6.142,0.726,17.89,106.1327,14.97,16.02,31.5,0,110.7,13.15,15.78,286.6
"2016-05-10 01:28:30",1620108,5.631,334.9,8.21,0.473,17.87,106.134,14.98,16.01,32.56,0,110.7,13.15,15.78,296.9
"2016-05-10 01:29:00",1620109,5.138,349.9,4.205,0.554,17.95,106.1334,14.97,16.02,32.75,0,110.7,13.15,15.78,311.9
"2016-05-10 01:29:30",1620110,6.475,340.2,4.336,0.322,17.99,106.1334,14.97,16.01,31.79,0,110.7,13.15,15.78,302.2
"2016-05-10 01:30:00",1620111,7.134,326.8,3.524,0.276,17.97,106.134,14.98,16,30.72,0,110.7,13.15,15.78,288.8
"2016-05-10 01:30:30",1620112,5.982,331.2,4.186,0.382,17.98,106.1343,14.98,16,30.77,0,110.7,13.15,15.78,293.2
"2016-05-10 01:31:00",1620113,7.255,342.5,2.777,0.63,18.08,106.1355,14.98,16,30.63,0,110.7,13.15,15.78,304.5
"2016-05-10 01:31:30",1620114,7.166,349.7,5.007,0.661,18.06,106.134,14.98,16,30.96,0,110.7,13.15,15.78,311.7
"2016-05-10 01:32:00",1620115,4.726,355.4,6.853,1.206,18.02,106.1378,14.99,15.99,31.03,0,110.7,13.15,15.79,317.4
"2016-05-10 01:32:30",1620116,6.35,342.6,5.78,0.384,17.95,106.1354,14.98,15.97,31,0,110.7,13.15,15.78,304.6
"2016-05-10 01:33:00",1620117,6.537,342.5,5.251,0.581,18,106.1351,14.98,15.97,30.98,0,110.7,13.15,15.78,304.5
"2016-05-10 01:33:30",1620118,6.87,346.5,2.688,0.32,17.99,106.128,14.96,15.96,31.37,0,110.7,13.15,15.76,308.5
"2016-05-10 01:34:00",1620119,7.26,344.5,5.04,0.742,18.04,106.127,14.96,15.97,31.34,0,110.6,13.15,15.76,306.5
"2016-05-10 01:34:30",1620120,6.466,344,8.81,1.461,18.02,106.1262,14.96,15.95,31.34,0,110.7,13.15,15.76,306.0
"2016-05-10 01:35:00",1620121,4.454,346.5,8.4,1.13,17.97,106.1176,14.93,15.96,31.65,0,110.7,13.15,15.74,308.5
"2016-05-10 01:35:30",1620122,4.465,340.1,8.67,1.166,17.93,106.1157,14.93,15.94,31.84,0,110.6,13.15,15.73,302.1
"2016-05-10 01:36:00",1620123,5.604,320.2,5.009,0.294,17.91,106.1157,14.93,15.93,31.62,0,110.7,13.14,15.73,282.2
"2016-05-10 01:36:30",1620124,5.331,333,3.754,0.395,18,106.1154,14.93,15.93,31.24,0,110.6,13.15,15.73,295.0
"2016-05-10 01:37:00",1620125,5.399,331.1,4.548,0.549,17.94,106.116,14.93,15.91,31.43,0,110.6,13.14,15.73,293.1
"2016-05-10 01:37:30",1620126,5.726,326,6.526,0.478,17.94,106.1175,14.93,15.92,31.48,0,110.6,13.14,15.74,288.0
"2016-05-10 01:38:00",1620127,5.831,323.2,3.563,0.284,18.05,106.1151,14.93,15.9,31.6,0,110.6,13.14,15.73,285.2
"2016-05-10 01:38:30",1620128,4.586,333.2,12.58,0.518,18.03,106.1119,14.92,15.9,31.74,0,110.6,13.14,15.72,295.2
"2016-05-10 01:39:00",1620129,4.119,321.6,5.657,0.411,17.95,106.1094,14.91,15.9,32.01,0,110.6,13.14,15.72,283.6
"2016-05-10 01:39:30",1620130,3.713,314.9,1.868,0.249,18,106.097,14.88,15.9,32.48,0,110.6,13.14,15.69,276.9
"2016-05-10 01:40:00",1620131,3.61,317.5,3.071,0.324,18.03,106.0849,14.85,15.89,32.7,0,110.6,13.14,15.65,279.5
"2016-05-10 01:40:30",1620132,3.787,318.7,5.395,0.187,18.11,106.0824,14.84,15.86,32.52,0,110.6,13.14,15.65,280.7
"2016-05-10 01:41:00",1620133,3.495,318.2,2.337,0.189,18.11,106.0773,14.83,15.82,32.66,0,110.6,13.14,15.63,280.2
"2016-05-10 01:41:30",1620134,3.776,320.2,2.528,0.174,18.13,106.0719,14.82,15.81,32.78,0,110.6,13.14,15.62,282.2
"2016-05-10 01:42:00",1620135,3.333,316.4,1.117,0.236,18.11,106.0624,14.79,15.8,32.96,0,110.6,13.14,15.60,278.4
"2016-05-10 01:42:30",1620136,3.189,312.5,3.734,0.146,18.03,106.0514,14.76,15.8,33.23,0,110.6,13.15,15.57,274.5
"2016-05-10 01:43:00",1620137,3.858,303.2,5.82,1.464,19.16,106.0514,14.76,15.9,33.5,0,110.6,13.1,15.57,265.2
"2016-05-10 01:43:30",1620138,4.249,310.7,7.377,1.496,19.61,106.0514,14.76,15.95,34.12,0,110.6,13.1,15.57,272.7
"2016-05-10 01:44:00",1620139,4.875,313.4,6.607,1.488,19.9,106.0466,14.75,15.9,34.14,0,110.6,13.1,15.56,275.4
"2016-05-10 01:44:30",1620140,4.809,307.4,5.264,1.1,17.91,106.0308,14.71,15.85,33.78,0,110.6,13.1,15.52,269.4
"2016-05-10 01:45:00",1620141,4.311,308.2,3.733,0.212,16.74,106.0176,14.68,15.74,33.39,0,110.6,13.15,15.48,270.2
"2016-05-10 01:45:30",1620142,5.142,317.3,8.4,0.918,18.01,106.0176,14.68,15.86,33.23,0,110.6,13.1,15.48,279.3
"2016-05-10 01:46:00",1620143,4.8,318,10.43,1.472,18.45,106.0072,14.65,15.81,33.09,0,110.6,13.1,15.45,280.0
"2016-05-10 01:46:30",1620144,3.204,289,6.026,0.35,17.15,105.9883,14.6,15.7,32.96,0,110.6,13.15,15.41,251.0